Location: Chiroubles
(46.1812°N, 4.6660°E)
Time: 02:36:48
(UTC+00:00)

Cosmos 1602 - Pass Details

Date: 15 August 2020
Orbit: 513 x 535 km, 82.5° (Epoch: 27 September)

Event Time Altitude Azimuth Distance (km) Brightness Sun altitude
Exits shadow 20:37:14 16° 190° (S) 1,432 5.6 -16.7°
Maximum altitude 20:40:18 85° 280° (W) 543 3.7 -17.1°
Drops below altitude 10° 20:44:16 10° 8° (N) 1,802 6.9 -17.6°
Sets 20:46:26 0° 9° (N) 2,699 7.9 -17.8°
